When you browse on this site, cookies collect data to enhance your experience and personalize the content and advertising you see.
Visit our Privacy Policy to learn more. By continuing to use the site, you agree to this use of cookies and data.
  • In Hungary
  • List of Countries
  • For 7 days
  • Water Temperature
  • Weather Map
  • News
  • Weather Widgets
  • user-avatar
    Login

    Hourly Weather Jewłach

    Today, 31 May, Sunday

    Time Temperature Precipitation Wind Pressure Humidity
    00:00 +23°C° 0 mm 4 mps 758 mmHg 56%
    01:00 +22°C° 0 mm 3 mps 759 mmHg 59%
    02:00 +21°C° 0 mm 2 mps 759 mmHg 62%
    03:00 +21°C° 0 mm 2 mps 759 mmHg 65%
    04:00 +21°C° 0 mm 2 mps 759 mmHg 63%
    05:00 +23°C° 0 mm 1 mps 760 mmHg 61%
    06:00 +23°C° 0 mm 1 mps 760 mmHg 60%
    07:00 +25°C° 0 mm 2 mps 760 mmHg 55%
    08:00 +26°C° 0 mm 3 mps 760 mmHg 51%
    09:00 +28°C° 0 mm 4 mps 760 mmHg 45%
    10:00 +29°C° 0 mm 4 mps 759 mmHg 42%
    11:00 +30°C° 0 mm 3 mps 759 mmHg 39%
    12:00 +31°C° 0 mm 3 mps 759 mmHg 37%
    13:00 +33°C° 0 mm 3 mps 759 mmHg 36%
    14:00 +33°C° 0 mm 3 mps 758 mmHg 35%
    15:00 +34°C° 0 mm 2 mps 758 mmHg 33%
    16:00 +34°C° 0 mm 2 mps 758 mmHg 34%
    17:00 +33°C° 0 mm 3 mps 758 mmHg 35%
    18:00 +33°C° 0 mm 3 mps 758 mmHg 35%
    19:00 +30°C° 0 mm 4 mps 758 mmHg 40%
    20:00 +27°C° 0 mm 4 mps 759 mmHg 45%
    21:00 +25°C° 0 mm 5 mps 759 mmHg 50%
    22:00 +23°C° 0 mm 5 mps 759 mmHg 52%
    23:00 +22°C° 0 mm 4 mps 759 mmHg 53%

    Tomorrow, 1 June, Monday

    Time Temperature Precipitation Wind Pressure Humidity
    00:00 +22°C° 0 mm 4 mps 759 mmHg 55%
    01:00 +21°C° 0 mm 4 mps 759 mmHg 56%
    02:00 +20°C° 0 mm 3 mps 759 mmHg 58%
    03:00 +20°C° 0 mm 3 mps 759 mmHg 59%
    04:00 +20°C° 0 mm 3 mps 759 mmHg 57%
    05:00 +21°C° 0 mm 3 mps 759 mmHg 55%
    06:00 +22°C° 0 mm 3 mps 759 mmHg 53%
    07:00 +24°C° 0 mm 3 mps 758 mmHg 47%
    08:00 +26°C° 0 mm 3 mps 758 mmHg 42%
    09:00 +28°C° 0 mm 3 mps 758 mmHg 36%
    10:00 +30°C° 0 mm 3 mps 758 mmHg 34%
    11:00 +31°C° 0 mm 3 mps 757 mmHg 32%
    12:00 +33°C° 0 mm 3 mps 756 mmHg 30%
    13:00 +34°C° 0 mm 3 mps 756 mmHg 29%
    14:00 +35°C° 0 mm 3 mps 755 mmHg 28%
    15:00 +35°C° 0 mm 2 mps 755 mmHg 27%
    16:00 +35°C° 0 mm 2 mps 755 mmHg 27%
    17:00 +35°C° 0 mm 2 mps 755 mmHg 28%
    18:00 +34°C° 0 mm 2 mps 754 mmHg 29%
    19:00 +31°C° 0 mm 3 mps 755 mmHg 34%
    20:00 +28°C° 0 mm 3 mps 755 mmHg 40%
    21:00 +26°C° 0 mm 3 mps 755 mmHg 46%
    22:00 +25°C° 0 mm 3 mps 755 mmHg 47%
    23:00 +24°C° 0 mm 3 mps 755 mmHg 49%

    Day after tomorrow, 2 June, Tuesday

    Time Temperature Precipitation Wind Pressure Humidity
    00:00 +22°C° 0 mm 3 mps 755 mmHg 51%
    01:00 +23°C° 0 mm 2 mps 755 mmHg 53%
    02:00 +22°C° 0 mm 1 mps 755 mmHg 54%
    03:00 +20°C° 0 mm 0 mps 755 mmHg 56%
    04:00 +22°C° 0 mm 1 mps 755 mmHg 54%
    05:00 +23°C° 0 mm 1 mps 755 mmHg 52%
    06:00 +24°C° 0 mm 1 mps 755 mmHg 49%
    07:00 +26°C° 0 mm 1 mps 754 mmHg 45%
    08:00 +28°C° 0 mm 2 mps 754 mmHg 41%
    09:00 +30°C° 0 mm 2 mps 754 mmHg 37%
    10:00 +32°C° 0 mm 2 mps 754 mmHg 34%
    11:00 +35°C° 0 mm 2 mps 753 mmHg 31%
    12:00 +35°C° 0 mm 1 mps 753 mmHg 27%
    13:00 +37°C° 0 mm 2 mps 753 mmHg 25%
    14:00 +39°C° 0 mm 3 mps 752 mmHg 23%
    15:00 +41°C° 0 mm 4 mps 752 mmHg 21%
    16:00 +37°C° 0.2 mm 5 mps 752 mmHg 29%
    17:00 +33°C° 0.2 mm 7 mps 752 mmHg 38%
    18:00 +29°C° 0.2 mm 9 mps 753 mmHg 46%
    19:00 +28°C° 0.3 mm 6 mps 753 mmHg 51%
    20:00 +27°C° 0.3 mm 4 mps 754 mmHg 57%
    21:00 +25°C° 0.3 mm 1 mps 754 mmHg 62%
    22:00 +25°C° 0 mm 1 mps 754 mmHg 62%
    23:00 +25°C° 0 mm 1 mps 753 mmHg 63%

    3 June, Wednesday

    Time Temperature Precipitation Wind Pressure Humidity
    00:00 +24°C° 0 mm 1 mps 753 mmHg 63%
    01:00 +24°C° 0.1 mm 1 mps 753 mmHg 66%
    02:00 +23°C° 0.1 mm 2 mps 753 mmHg 69%
    03:00 +22°C° 0.1 mm 3 mps 752 mmHg 71%
    04:00 +22°C° 0 mm 3 mps 752 mmHg 68%
    05:00 +23°C° 0 mm 4 mps 753 mmHg 66%
    06:00 +23°C° 0 mm 5 mps 753 mmHg 63%
    07:00 +27°C° 0 mm 5 mps 752 mmHg 55%
    08:00 +29°C° 0 mm 5 mps 752 mmHg 47%
    09:00 +32°C° 0 mm 5 mps 752 mmHg 39%
    10:00 +34°C° 0 mm 5 mps 751 mmHg 35%
    11:00 +35°C° 0 mm 5 mps 751 mmHg 31%
    12:00 +37°C° 0 mm 5 mps 751 mmHg 27%
    13:00 +39°C° 0 mm 5 mps 751 mmHg 23%
    14:00 +40°C° 0 mm 4 mps 751 mmHg 20%
    15:00 +41°C° 0 mm 4 mps 750 mmHg 17%
    16:00 +39°C° 0.1 mm 5 mps 751 mmHg 20%
    17:00 +36°C° 0.1 mm 6 mps 751 mmHg 24%
    18:00 +34°C° 0.1 mm 7 mps 751 mmHg 28%
    19:00 +32°C° 0 mm 6 mps 752 mmHg 31%
    20:00 +30°C° 0 mm 5 mps 752 mmHg 34%
    21:00 +28°C° 0 mm 4 mps 752 mmHg 37%
    22:00 +27°C° 0 mm 6 mps 753 mmHg 42%
    23:00 +26°C° 0 mm 7 mps 753 mmHg 47%

    4 June, Thursday

    Time Temperature Precipitation Wind Pressure Humidity
    00:00 +24°C° 0 mm 9 mps 754 mmHg 52%
    01:00 +24°C° 0 mm 9 mps 754 mmHg 54%
    02:00 +23°C° 0 mm 9 mps 755 mmHg 55%
    03:00 +23°C° 0 mm 9 mps 755 mmHg 57%
    04:00 +23°C° 0 mm 9 mps 756 mmHg 55%
    05:00 +23°C° 0 mm 9 mps 756 mmHg 53%
    06:00 +24°C° 0 mm 9 mps 756 mmHg 51%
    07:00 +26°C° 0 mm 9 mps 756 mmHg 46%
    08:00 +28°C° 0 mm 8 mps 756 mmHg 40%
    09:00 +30°C° 0 mm 7 mps 757 mmHg 35%
    10:00 +33°C° 0 mm 6 mps 757 mmHg 31%
    11:00 +34°C° 0 mm 5 mps 757 mmHg 27%
    12:00 +36°C° 0 mm 4 mps 757 mmHg 23%
    13:00 +37°C° 0 mm 3 mps 756 mmHg 22%
    14:00 +37°C° 0 mm 3 mps 756 mmHg 21%
    15:00 +38°C° 0 mm 2 mps 756 mmHg 20%
    16:00 +36°C° 0 mm 4 mps 756 mmHg 25%
    17:00 +35°C° 0 mm 7 mps 756 mmHg 31%
    18:00 +33°C° 0 mm 9 mps 756 mmHg 37%
    19:00 +31°C° 0 mm 8 mps 757 mmHg 43%
    20:00 +28°C° 0 mm 7 mps 757 mmHg 48%
    21:00 +26°C° 0 mm 6 mps 758 mmHg 54%
    22:00 +25°C° 0 mm 5 mps 758 mmHg 58%
    23:00 +23°C° 0 mm 5 mps 758 mmHg 62%

    5 June, Friday

    Time Temperature Precipitation Wind Pressure Humidity
    00:00 +22°C° 0 mm 4 mps 758 mmHg 66%
    01:00 +22°C° 0 mm 3 mps 759 mmHg 68%
    02:00 +21°C° 0 mm 2 mps 759 mmHg 70%
    03:00 +22°C° 0 mm 1 mps 759 mmHg 72%
    04:00 +23°C° 0 mm 2 mps 759 mmHg 69%
    05:00 +22°C° 0 mm 3 mps 759 mmHg 66%
    06:00 +23°C° 0 mm 5 mps 760 mmHg 62%
    07:00 +26°C° 0 mm 5 mps 760 mmHg 56%
    08:00 +27°C° 0 mm 5 mps 760 mmHg 50%
    09:00 +29°C° 0 mm 5 mps 760 mmHg 44%
    10:00 +30°C° 0 mm 4 mps 760 mmHg 41%
    11:00 +33°C° 0 mm 3 mps 760 mmHg 37%
    12:00 +34°C° 0 mm 2 mps 760 mmHg 34%
    13:00 +35°C° 0 mm 2 mps 759 mmHg 31%
    14:00 +36°C° 0 mm 2 mps 759 mmHg 29%
    15:00 +36°C° 0 mm 2 mps 759 mmHg 26%
    16:00 +36°C° 0 mm 2 mps 759 mmHg 27%
    17:00 +36°C° 0 mm 2 mps 759 mmHg 27%
    18:00 +36°C° 0 mm 3 mps 760 mmHg 27%
    19:00 +33°C° 0.4 mm 3 mps 761 mmHg 36%
    20:00 +29°C° 0.4 mm 3 mps 761 mmHg 45%
    21:00 +26°C° 0.4 mm 3 mps 762 mmHg 53%
    22:00 +25°C° 0.1 mm 3 mps 763 mmHg 55%
    23:00 +25°C° 0.1 mm 3 mps 763 mmHg 56%
    Show more